Wind_Speed
12 13 12 11 11 11 11 11 11 11 12 14 15 16 17 19 19 11 10 3 2 5 2 2 2 2 3 1 2 1 1 7 8 6 7 8 9 6 5 12 6 4 9 24 26
13 13 13 12 12 12 12 11 11 11 12 13 13 14 15 18 14 13 5 9 7 6 6 6 4 2 1 1 2 3 3 8 6 6 7 8 6 9 6 10 9 12 15 27 28
13 13 13 13 13 12 12 12 12 12 12 12 12 12 14 15 10 2 4 5 5 6 8 5 3 4 1 2 2 2 5 4 7 5 8 9 7 4 8 5 9 16 20 23 27
14 14 13 14 14 13 12 12 12 11 11 12 11 11 13 5 4 6 3 8 1 4 6 3 5 2 2 2 3 2 5 1 6 7 7 8 8 4 5 1 8 17 19 21 22
14 14 14 14 15 15 12 11 11 10 10 10 10 10 6 7 6 2 5 6 2 2 4 5 4 2 1 2 3 5 4 4 8 7 7 9 6 5 8 10 12 19 18 19 18
14 14 15 16 16 16 13 11 10 9 9 8 7 6 5 11 2 2 3 6 3 5 3 5 4 6 4 1 3 2 5 8 7 9 8 7 7 4 7 11 16 18 18 16 17
14 15 14 16 16 16 13 10 8 7 7 6 5 3 8 11 1 3 6 6 7 8 8 3 6 6 1 6 6 8 6 6 6 6 7 6 7 7 10 11 14 16 15 15 14
15 15 15 17 17 16 11 8 7 6 5 4 2 2 7 3 5 10 9 10 9 8 9 6 7 7 6 4 7 5 6 6 5 5 4 6 9 9 11 12 14 14 14 14 15
15 15 16 17 17 15 10 6 4 3 2 2 2 6 7 3 6 4 7 7 7 6 7 5 6 4 6 10 8 6 4 1 2 7 4 7 5 11 11 12 13 13 15 14 14
15 16 17 17 18 15 5 1 2 3 2 2 5 6 7 4 1 3 5 7 6 6 7 9 6 7 5 9 3 2 5 3 6 7 9 7 6 11 13 12 12 14 14 14 15
17 17 18 18 17 13 3 2 5 6 9 9 2 4 3 4 3 8 8 12 8 7 14 9 11 8 6 7 4 5 5 7 2 4 9 10 8 9 14 13 13 13 15 15 15
18 18 19 18 16 6 4 5 4 5 6 12 12 10 10 5 4 8 9 13 11 13 8 9 15 7 6 5 6 5 6 1 4 2 9 9 8 9 16 18 16 16 15 15 16
19 19 19 17 7 1 5 2 1 4 6 5 6 8 8 10 6 8 13 17 13 13 16 18 8 10 4 8 7 9 7 5 8 2 7 7 13 8 13 15 16 17 17 16 16
21 20 18 11 1 1 3 5 6 4 5 9 7 5 8 7 8 11 13 12 8 15 13 16 10 9 13 11 7 11 2 1 4 9 1 5 2 8 6 12 16 17 17 17 16
23 20 17 6 5 4 3 2 1 5 5 5 6 4 5 13 6 11 12 11 17 11 9 16 12 13 13 10 3 8 6 7 8 10 9 10 6 7 6 4 7 15 18 18 18
26 21 16 3 5 5 2 4 5 7 3 6 6 9 13 14 7 10 12 8 10 16 14 19 8 10 15 6 6 1 7 8 7 9 10 7 6 3 7 9 3 2 12 17 18
28 19 8 5 1 2 2 6 6 6 3 7 6 9 15 15 10 15 15 16 14 15 16 18 14 14 8 12 7 8 12 10 9 8 3 5 6 5 9 7 5 1 3 7 16
23 5 3 8 4 2 8 7 7 2 2 3 3 6 13 15 13 12 14 15 19 19 14 15 18 19 12 14 10 15 16 7 5 7 4 2 4 5 9 7 5 5 5 4 8
4 1 3 2 10 4 7 8 1 2 2 2 6 10 11 12 9 12 15 16 16 16 17 15 19 18 16 12 13 8 12 14 12 9 9 5 4 11 11 10 8 8 8 8 7
1 4 4 2 9 7 8 8 2 1 4 3 5 6 13 17 13 15 15 15 18 18 16 9 11 12 13 9 8 10 4 9 9 9 17 6 5 7 12 8 8 9 9 9 9
4 4 5 5 9 6 9 5 3 6 5 4 2 4 4 13 15 14 12 10 17 17 12 6 13 11 10 14 16 8 10 9 12 8 10 10 2 6 8 9 9 9 9 9 9
5 3 8 3 7 6 11 6 1 7 7 6 5 6 6 10 12 11 14 16 18 18 17 16 9 12 19 7 2 7 9 12 9 13 9 9 10 6 12 10 11 10 9 10 8
2 3 6 4 6 8 4 9 8 8 8 5 5 5 4 6 5 10 12 10 11 20 19 14 10 8 7 10 7 9 12 10 9 8 11 9 3 9 9 11 10 11 10 10 9
4 4 4 5 4 9 6 10 10 7 11 6 5 4 6 8 8 4 9 8 10 15 13 12 17 13 12 4 2 13 9 10 11 9 9 8 6 13 10 12 12 11 10 10 9
3 1 4 6 9 8 4 3 9 8 9 5 7 12 9 6 8 8 10 7 6 7 8 17 18 14 14 4 7 8 7 11 12 12 7 11 10 5 11 14 13 13 12 11 11
4 3 2 3 3 8 6 7 10 10 6 9 9 5 8 11 8 5 7 10 8 10 16 20 16 16 14 8 11 9 8 10 11 8 9 10 12 7 9 15 14 13 12 13 13
3 2 4 5 6 6 7 7 3 3 9 11 6 5 7 4 6 6 6 8 3 10 17 17 12 11 14 9 9 10 13 12 11 9 9 9 8 10 15 15 15 15 13 14 14
Wind_Direction
357 351 345 337 332 319 313 314 316 317 323 329 339 338 333 328 324 310 289 348 287 229 166 162 211 264 237 181 250 199 146 73 71 42 109 149 123 114 92 135 73 47 141 141 154
356 353 348 342 332 321 311 307 308 310 316 325 335 331 327 325 313 275 292 313 222 180 240 265 321 284 203 181 193 288 17 45 30 66 111 155 132 129 135 139 119 96 104 140 155
351 349 347 343 336 326 310 303 303 306 310 318 330 330 327 326 275 125 5 17 178 210 269 275 309 279 240 226 154 44 27 31 70 66 120 136 136 122 145 182 138 140 141 151 159
348 345 345 341 337 329 314 302 296 298 306 315 329 333 326 300 218 119 33 26 141 212 245 253 253 248 210 187 147 276 32 338 88 113 121 140 128 137 85 32 123 144 152 156 168
344 344 342 341 335 329 318 303 293 293 300 314 329 336 328 242 256 229 294 332 310 280 251 291 323 324 315 97 162 265 84 81 107 124 111 127 141 95 112 120 138 144 155 164 174
342 340 339 336 334 330 319 300 288 288 295 311 324 337 277 255 59 234 295 308 267 272 270 264 355 346 295 200 312 54 104 122 134 122 131 126 134 188 138 137 144 157 164 167 172
338 337 338 339 336 330 319 300 282 276 288 299 315 349 259 254 260 263 290 280 273 295 292 274 321 276 307 154 125 127 138 138 131 138 127 142 146 87 139 152 156 170 170 168 176
335 335 336 337 332 329 319 292 268 266 272 276 294 275 267 228 263 271 263 258 249 260 270 302 290 277 291 131 159 203 221 217 130 180 129 244 112 131 154 164 167 172 173 183 188
335 336 335 333 331 329 322 283 264 242 222 217 246 250 260 214 233 211 223 233 189 212 246 266 241 264 199 213 187 196 249 255 151 215 164 229 97 145 163 170 171 177 178 186 190
338 337 334 333 333 332 326 189 162 125 156 217 257 252 227 171 181 252 208 208 213 195 196 221 232 198 250 234 259 222 247 187 278 167 224 223 255 154 176 182 177 181 181 186 193
334 333 333 331 330 328 126 221 211 188 208 242 96 286 107 333 220 194 190 187 199 227 214 202 240 202 287 360 360 311 289 300 323 151 231 248 258 192 186 195 180 187 191 192 203
337 335 332 331 330 328 168 250 17 360 276 220 245 262 259 291 270 191 187 200 198 219 208 194 234 116 229 306 294 266 274 249 106 110 228 281 271 217 187 205 194 189 191 193 195
335 334 330 337 331 127 233 236 63 319 258 171 212 245 222 199 233 198 201 208 205 207 205 224 209 141 209 234 258 232 290 358 6 10 234 286 251 204 203 206 205 200 196 191 192
338 330 327 351 50 238 208 194 291 253 261 144 185 178 186 222 234 207 218 201 207 213 209 229 138 186 229 238 263 278 166 63 313 305 9 232 339 127 176 201 211 209 202 198 198
339 328 323 338 304 229 108 306 181 207 238 127 146 106 171 195 111 175 187 206 207 199 206 205 199 209 226 233 321 22 360 305 297 290 269 169 264 119 173 191 190 207 211 203 203
336 324 321 328 225 237 244 273 209 225 198 144 140 179 173 196 191 137 180 227 238 214 214 243 193 215 242 207 268 359 262 261 253 268 252 47 289 130 52 51 100 12 210 205 197
333 315 274 218 80 180 226 184 216 250 137 151 168 180 195 179 173 179 185 194 193 198 209 217 208 211 226 222 204 252 246 236 225 205 238 77 265 7 76 81 57 44 223 223 204
330 321 284 197 225 226 193 218 244 65 215 123 204 182 195 185 197 193 190 203 212 212 212 210 210 213 198 237 216 222 255 290 256 280 114 170 262 90 103 102 79 80 108 154 193
346 135 188 213 205 213 218 222 261 170 31 319 169 195 191 189 216 197 210 212 194 219 223 207 225 201 222 225 233 218 228 260 300 282 274 237 152 255 109 110 105 93 103 113 133
226 192 114 222 178 214 228 256 214 244 319 257 224 237 188 188 203 199 194 211 200 203 236 201 217 191 184 206 198 277 278 201 222 183 256 164 256 264 130 130 122 111 104 105 110
234 206 24 161 163 217 225 222 241 216 266 287 164 199 225 176 202 194 200 198 209 191 223 218 234 158 172 205 205 183 220 237 275 260 291 278 251 82 114 144 132 118 113 115 121
286 198 157 168 201 214 229 211 321 245 208 266 280 259 235 184 200 216 218 216 199 203 199 221 220 177 201 114 346 272 263 214 226 223 239 302 296 98 122 137 134 126 122 120 121
286 105 184 246 221 210 177 231 245 251 232 229 243 244 207 198 224 218 207 198 186 208 208 201 236 207 188 175 182 233 202 240 277 312 277 281 318 124 128 134 133 133 126 128 132
270 177 155 218 283 283 203 227 227 214 254 239 268 229 206 226 225 208 217 193 215 212 211 194 233 236 198 195 297 194 210 220 239 261 285 247 300 149 144 147 146 139 133 133 134
232 103 360 187 211 222 229 281 241 232 217 222 224 237 219 232 206 218 230 178 187 185 213 221 224 228 261 285 272 291 231 209 236 272 292 333 320 57 158 163 155 148 145 138 142
309 320 196 291 207 220 189 243 253 238 233 201 239 199 237 243 247 200 223 216 212 186 202 205 218 221 244 242 250 264 237 235 234 251 267 278 277 64 136 131 152 153 154 149 149
3 251 282 142 199 229 225 252 275 234 234 256 235 215 194 237 249 265 264 285 291 196 194 196 202 200 225 202 222 239 232 227 236 238 254 283 72 136 150 160 155 159 157 152 154
Height
792 789 787 785 784 783 781 780 779 778 778 776 775 773 770 766 762 759 754 753 753 753 754 754 752 750 747 742 741 742 753 769 769 766 770 760 767 763 763 772 774 777 776 785 797
791 789 787 785 783 781 780 779 778 778 777 776 775 774 772 767 762 756 754 752 751 753 753 750 744 745 741 743 742 745 755 763 750 749 761 761 762 766 771 776 780 783 784 792 798
791 788 786 784 782 780 778 777 776 776 775 775 775 773 770 766 760 748 752 751 751 752 752 750 746 743 744 742 744 747 760 751 750 748 751 762 765 762 770 778 773 785 788 793 798
790 787 785 783 781 779 777 776 775 775 774 774 773 771 768 767 770 750 752 752 751 752 751 746 741 744 747 748 741 755 748 748 750 752 756 765 763 769 767 777 767 777 785 791 796
789 787 784 782 780 777 776 774 774 773 773 773 772 770 768 761 753 751 752 752 751 751 748 744 742 744 749 744 743 751 749 748 749 752 755 760 769 770 773 774 772 778 786 790 794
789 786 783 781 779 777 774 772 772 772 772 772 772 771 769 767 751 752 751 751 751 749 746 744 741 741 743 743 745 743 747 751 750 754 758 765 770 765 770 771 776 781 785 789 792
788 785 782 780 777 774 772 771 770 770 770 771 771 771 767 754 752 752 752 751 750 748 744 742 742 744 737 744 737 744 760 754 755 755 762 758 777 774 769 772 779 781 784 788 792
786 783 781 779 776 773 770 769 768 769 769 770 771 772 760 752 752 751 751 750 750 748 747 745 744 740 738 736 743 754 753 768 760 759 762 762 783 774 769 773 778 779 783 787 789
785 782 780 777 773 770 768 768 768 768 769 770 772 770 756 750 750 748 749 747 747 747 746 746 743 739 739 748 756 755 768 768 767 756 760 765 774 769 767 770 774 777 780 784 786
784 781 778 775 772 770 767 767 768 769 770 771 772 771 749 746 747 747 747 747 744 742 744 743 739 745 755 749 792 770 768 763 767 759 762 764 769 764 766 767 769 771 774 779 781
782 779 776 773 770 768 769 770 769 767 765 748 747 746 747 748 747 744 744 744 743 742 753 744 754 760 752 747 748 753 759 763 751 747 761 761 760 756 762 764 766 768 769 772 775
781 778 774 771 768 766 767 762 759 763 754 746 748 750 749 751 748 740 743 744 746 756 745 756 761 743 744 748 752 754 760 758 750 748 758 753 759 749 752 756 757 763 765 766 768
779 775 772 769 766 766 767 762 763 763 754 742 743 743 744 748 745 738 737 735 745 752 751 754 745 742 754 754 760 752 759 758 762 755 750 759 755 750 746 749 751 751 755 757 762
776 772 769 767 769 766 763 763 763 763 756 746 743 738 742 739 745 732 733 735 742 752 745 747 738 751 758 757 751 763 744 752 759 762 768 751 776 752 744 750 750 750 751 754 757
773 769 766 766 767 763 764 763 762 762 770 742 741 737 734 738 730 736 732 733 745 747 749 753 753 757 760 752 746 758 748 751 756 759 759 760 766 749 739 745 745 745 742 746 748
770 766 763 765 765 763 762 762 763 765 769 743 733 739 743 735 731 730 735 732 725 740 742 738 728 738 742 741 745 746 753 753 754 755 776 762 764 751 742 750 746 742 735 737 744
765 761 761 763 758 761 762 760 762 762 737 745 738 734 733 738 736 734 741 745 750 766 763 748 747 736 737 751 745 749 756 779 787 779 786 756 765 748 739 743 745 747 743 737 735
759 756 756 759 759 760 761 755 769 746 740 732 734 733 741 731 734 734 739 746 734 738 748 762 773 743 735 746 752 756 749 775 807 792 784 764 776 748 739 738 742 741 740 739 738
756 758 759 757 757 760 754 757 746 742 738 738 736 742 741 733 732 736 739 739 734 732 749 753 759 723 728 730 738 748 765 742 769 758 779 756 748 729 734 744 744 746 745 747 748
757 754 755 756 757 758 751 752 743 738 737 734 739 733 741 737 741 740 739 727 731 725 716 735 761 733 733 735 738 745 730 770 763 814 812 769 766 756 742 751 749 749 751 752 754
756 744 755 755 758 750 751 740 741 731 735 738 737 736 726 732 732 736 734 723 720 726 722 727 737 748 740 746 743 751 754 750 742 749 773 776 761 723 734 747 751 750 749 753 756
750 741 756 757 752 738 741 739 746 733 730 735 732 731 728 725 732 731 733 725 712 715 740 728 730 750 744 729 727 728 731 733 758 763 752 759 754 720 733 741 747 753 752 755 759
742 744 755 755 744 742 737 739 736 734 731 731 731 726 724 727 738 724 721 707 709 715 728 724 741 757 754 741 734 738 730 729 727 731 753 766 757 737 741 744 750 755 756 759 763
748 743 747 746 738 735 738 738 738 727 730 727 727 724 728 730 722 727 725 714 712 711 718 720 729 739 752 742 724 741 737 732 732 749 745 742 735 742 746 752 753 757 759 761 764
745 737 740 742 738 735 735 733 737 736 728 725 728 727 724 729 726 729 717 716 717 722 719 720 740 729 723 732 733 731 730 735 741 733 749 737 742 729 737 745 750 753 757 761 765
751 747 742 735 736 737 744 733 736 729 732 727 731 719 720 727 717 720 715 714 717 720 720 712 734 725 739 731 732 737 728 726 728 730 738 736 739 717 726 738 747 751 754 758 762
760 757 752 742 732 736 729 732 730 729 723 717 718 723 725 719 713 710 709 707 709 714 716 714 719 737 748 731 734 749 727 726 725 724 728 740 728 729 739 741 744 748 751 755 759